Location: Sabalos
(43.2860°N, 0.1414°E)
Time: 21:02:00
(UTC+00:00)

Cosmos 2181 Rocket - Pass Details

Date: 05 July 2020
Orbit: 951 x 1016 km, 82.9° (Epoch: 14 August)

Event Time Altitude Azimuth Distance (km) Brightness Sun altitude
Rises 21:21:12 0° 354° (N) 3,732 8.1 -14.2°
Reaches altitude 10° 21:23:47 10° 357° (N) 2,770 7.2 -14.4°
Maximum altitude 21:30:06 68° 80° (E) 1,056 4.1 -15.1°
Enters shadow 21:34:18 22° 159° (SSE) 1,996 5.0 -15.6°
